UTA560 URML-UUWW

Flight info

Callsign UTA560
Flight time 2h 10m
Altitude 38000
Route AMKOL1N AMKOL B945 UP N50 OLOPI OLOPI3A
Aircraft B738/M-SDE2E3FGHIRWXY/LB1

Departure

Time 2026-04-24 10:09
Airport Makhachkala Uytash International Airport (URML)

Arrival

Time 2026-04-24 12:19
Airport Vnukovo International Airport (UUWW)
Time Latitude Longitude Altitude Speed Heading
2026-04-24 09:51 42.81982 47.65579 20 ft 0 kts 59°
2026-04-24 09:59 42.81975 47.65563 20 ft 4 kts 59°
2026-04-24 09:59 42.81961 47.65531 20 ft 4 kts 59°
2026-04-24 09:59 42.81950 47.65505 20 ft 4 kts 50°
2026-04-24 10:00 42.81931 47.65490 20 ft 4 kts 348°
2026-04-24 10:00 42.81909 47.65504 20 ft 4 kts 328°
2026-04-24 10:00 42.81887 47.65523 21 ft 3 kts 328°
2026-04-24 10:00 42.81885 47.65524 20 ft 1 kts 328°
2026-04-24 10:02 42.81894 47.65517 20 ft 4 kts 328°
2026-04-24 10:02 42.81931 47.65486 21 ft 8 kts 328°
2026-04-24 10:03 42.81991 47.65436 23 ft 12 kts 328°
2026-04-24 10:03 42.82021 47.65342 20 ft 13 kts 243°
2026-04-24 10:03 42.81985 47.65261 21 ft 15 kts 238°
2026-04-24 10:03 42.81926 47.65127 21 ft 17 kts 247°
2026-04-24 10:04 42.81919 47.65049 18 ft 1 kts 284°
2026-04-24 10:04 42.81922 47.65040 18 ft 3 kts 295°
2026-04-24 10:04 42.81970 47.64993 18 ft 14 kts 330°
2026-04-24 10:04 42.82060 47.64920 20 ft 15 kts 327°
2026-04-24 10:05 42.82144 47.64847 22 ft 14 kts 328°
2026-04-24 10:05 42.82226 47.64779 21 ft 13 kts 330°
2026-04-24 10:05 42.82303 47.64715 23 ft 13 kts 328°
2026-04-24 10:05 42.82378 47.64651 22 ft 13 kts 328°
2026-04-24 10:06 42.82451 47.64589 20 ft 12 kts 328°
2026-04-24 10:06 42.82593 47.64469 19 ft 12 kts 325°
2026-04-24 10:06 42.82660 47.64415 18 ft 11 kts 360°
2026-04-24 10:07 42.82673 47.64447 19 ft 3 kts 132°
2026-04-24 10:07 42.82654 47.64444 19 ft 3 kts 205°
2026-04-24 10:07 42.82632 47.64440 19 ft 3 kts 176°
2026-04-24 10:07 42.82612 47.64451 20 ft 3 kts 150°
2026-04-24 10:08 42.82594 47.64468 21 ft 3 kts 146°
2026-04-24 10:08 42.82524 47.64527 21 ft 38 kts 148°
2026-04-24 10:08 42.82103 47.64885 20 ft 102 kts 147°
2026-04-24 10:08 42.81342 47.65530 27 ft 153 kts 148°
2026-04-24 10:09 42.80343 47.66322 304 ft 172 kts 151°
2026-04-24 10:09 42.79303 47.67162 928 ft 174 kts 148°
2026-04-24 10:09 42.78342 47.67994 1834 ft 161 kts 147°
2026-04-24 10:09 42.77329 47.68844 2127 ft 185 kts 148°
2026-04-24 10:10 42.76174 47.69823 2353 ft 207 kts 147°
2026-04-24 10:10 42.74885 47.70897 2517 ft 227 kts 147°
2026-04-24 10:10 42.73511 47.72107 2868 ft 240 kts 141°
2026-04-24 10:10 42.72499 47.73917 3299 ft 247 kts 107°
2026-04-24 10:11 42.72384 47.76213 3961 ft 247 kts 77°
2026-04-24 10:11 42.73142 47.78292 4559 ft 249 kts 49°
2026-04-24 10:11 42.74165 47.80204 5107 ft 255 kts 57°
2026-04-24 10:11 42.75402 47.81982 5408 ft 267 kts 26°
2026-04-24 10:12 42.77189 47.82492 5905 ft 268 kts 352°
2026-04-24 10:12 42.78916 47.81621 6413 ft 270 kts 329°
2026-04-24 10:12 42.80583 47.80380 6905 ft 277 kts 330°
2026-04-24 10:12 42.82288 47.79224 7389 ft 282 kts 333°
2026-04-24 10:13 42.84084 47.78136 7951 ft 285 kts 334°
2026-04-24 10:13 42.85844 47.77165 8407 ft 289 kts 336°
2026-04-24 10:13 42.87800 47.76160 8900 ft 294 kts 337°
2026-04-24 10:13 42.89732 47.75216 9418 ft 297 kts 337°
2026-04-24 10:14 42.91690 47.74289 9950 ft 298 kts 337°
2026-04-24 10:14 42.93668 47.73368 10297 ft 307 kts 337°
2026-04-24 10:14 42.95737 47.72410 10417 ft 322 kts 337°
2026-04-24 10:14 42.97904 47.71412 10534 ft 335 kts 337°
2026-04-24 10:15 43.00160 47.70378 10635 ft 348 kts 337°
2026-04-24 10:15 43.02500 47.69307 10736 ft 360 kts 337°
2026-04-24 10:15 43.04908 47.68206 10882 ft 369 kts 337°
2026-04-24 10:15 43.07350 47.67091 11183 ft 371 kts 337°
2026-04-24 10:16 43.09801 47.65972 11564 ft 371 kts 337°
2026-04-24 10:16 43.12278 47.64931 11868 ft 375 kts 340°
2026-04-24 10:16 43.14827 47.64104 12189 ft 378 kts 342°
2026-04-24 10:16 43.17403 47.63364 12491 ft 379 kts 343°
2026-04-24 10:17 43.19997 47.62634 12748 ft 382 kts 343°
2026-04-24 10:17 43.22604 47.61889 13016 ft 383 kts 342°
2026-04-24 10:17 43.25217 47.61127 13288 ft 385 kts 342°
2026-04-24 10:17 43.27838 47.60348 13539 ft 387 kts 342°
2026-04-24 10:18 43.30473 47.59556 13783 ft 388 kts 342°
2026-04-24 10:18 43.33116 47.58757 14023 ft 390 kts 341°
2026-04-24 10:18 43.35767 47.57952 14240 ft 392 kts 341°
2026-04-24 10:18 43.38433 47.57142 14472 ft 393 kts 341°
2026-04-24 10:19 43.41102 47.56331 14694 ft 394 kts 341°
2026-04-24 10:19 43.43750 47.55524 14876 ft 396 kts 341°
2026-04-24 10:19 43.46447 47.54702 15065 ft 398 kts 341°
2026-04-24 10:19 43.49153 47.53878 15273 ft 399 kts 341°
2026-04-24 10:20 43.51864 47.53049 15478 ft 400 kts 341°
2026-04-24 10:20 43.54588 47.52215 15645 ft 402 kts 341°
2026-04-24 10:20 43.57321 47.51379 15813 ft 403 kts 341°
2026-04-24 10:20 43.60063 47.50543 15998 ft 404 kts 341°
2026-04-24 10:21 43.62822 47.49751 16175 ft 407 kts 343°
2026-04-24 10:21 43.65637 47.49159 16348 ft 410 kts 346°
2026-04-24 10:21 43.68473 47.48668 16489 ft 413 kts 347°
2026-04-24 10:21 43.71331 47.48204 16630 ft 414 kts 347°
2026-04-24 10:22 43.74200 47.47734 16776 ft 415 kts 346°
2026-04-24 10:22 43.77074 47.47249 16941 ft 416 kts 346°
2026-04-24 10:22 43.79950 47.46749 17106 ft 417 kts 346°
2026-04-24 10:22 43.82828 47.46238 17231 ft 418 kts 346°
2026-04-24 10:23 43.85713 47.45719 17377 ft 419 kts 346°
2026-04-24 10:23 43.88604 47.45195 17515 ft 420 kts 345°
2026-04-24 10:23 43.91507 47.44667 17615 ft 422 kts 345°
2026-04-24 10:23 43.94419 47.44137 17730 ft 423 kts 345°
2026-04-24 10:24 43.97340 47.43606 17857 ft 424 kts 345°
2026-04-24 10:24 44.00266 47.43074 17986 ft 424 kts 345°
2026-04-24 10:24 44.03191 47.42542 18114 ft 425 kts 345°
2026-04-24 10:24 44.06127 47.42006 18168 ft 427 kts 345°
2026-04-24 10:25 44.09083 47.41465 18265 ft 428 kts 345°
2026-04-24 10:25 44.12035 47.40927 18395 ft 428 kts 345°
2026-04-24 10:25 44.14989 47.40387 18518 ft 429 kts 345°
2026-04-24 10:25 44.17951 47.39846 18604 ft 430 kts 345°
2026-04-24 10:26 44.20921 47.39301 18696 ft 431 kts 345°
2026-04-24 10:26 44.23892 47.38756 18802 ft 431 kts 345°
2026-04-24 10:26 44.26870 47.38209 18911 ft 431 kts 345°
2026-04-24 10:26 44.29842 47.37663 19049 ft 430 kts 345°
2026-04-24 10:27 44.32807 47.37117 19170 ft 430 kts 345°
2026-04-24 10:27 44.35780 47.36569 19260 ft 431 kts 345°
2026-04-24 10:27 44.38757 47.36018 19315 ft 433 kts 345°
2026-04-24 10:27 44.41748 47.35464 19412 ft 433 kts 345°
2026-04-24 10:28 44.44739 47.34910 19526 ft 433 kts 345°
2026-04-24 10:28 44.47725 47.34356 19617 ft 434 kts 345°
2026-04-24 10:28 44.50721 47.33802 19692 ft 435 kts 345°
2026-04-24 10:28 44.53688 47.33254 19799 ft 435 kts 345°
2026-04-24 10:29 44.56691 47.32688 19900 ft 435 kts 345°
2026-04-24 10:29 44.59696 47.32112 19967 ft 436 kts 345°
2026-04-24 10:29 44.62702 47.31531 20038 ft 437 kts 345°
2026-04-24 10:29 44.65715 47.30947 20100 ft 437 kts 345°
2026-04-24 10:30 44.68729 47.30364 20156 ft 438 kts 345°
2026-04-24 10:30 44.71753 47.29776 20208 ft 439 kts 345°
2026-04-24 10:30 44.74781 47.29190 20292 ft 439 kts 345°
2026-04-24 10:30 44.77810 47.28604 20364 ft 440 kts 344°
2026-04-24 10:31 44.80843 47.28018 20455 ft 440 kts 345°
2026-04-24 10:31 44.83880 47.27430 20520 ft 440 kts 345°
2026-04-24 10:31 44.85930 47.27032 20558 ft 441 kts 344°
2026-04-24 10:31 44.88934 47.26448 20596 ft 442 kts 344°
2026-04-24 10:32 44.91977 47.25853 20623 ft 442 kts 344°
2026-04-24 10:32 44.95035 47.25256 20668 ft 443 kts 344°
2026-04-24 10:32 44.98087 47.24659 20733 ft 443 kts 345°
2026-04-24 10:32 45.01141 47.24063 20794 ft 443 kts 345°
2026-04-24 10:33 45.04198 47.23467 20838 ft 444 kts 344°
2026-04-24 10:33 45.07262 47.22868 20881 ft 445 kts 344°
2026-04-24 10:33 45.10326 47.22273 20917 ft 445 kts 345°
2026-04-24 10:33 45.13400 47.21676 20952 ft 446 kts 345°
2026-04-24 10:34 45.16481 47.21075 21010 ft 446 kts 345°
2026-04-24 10:34 45.19553 47.20474 21064 ft 446 kts 344°
2026-04-24 10:34 45.22629 47.19872 21113 ft 447 kts 344°
2026-04-24 10:34 45.25711 47.19266 21147 ft 447 kts 344°
2026-04-24 10:35 45.28791 47.18660 21198 ft 447 kts 344°
2026-04-24 10:35 45.31873 47.18051 21237 ft 448 kts 344°
2026-04-24 10:35 45.34963 47.17440 21287 ft 448 kts 344°
2026-04-24 10:35 45.38046 47.16831 21332 ft 448 kts 344°
2026-04-24 10:36 45.41132 47.16220 21373 ft 448 kts 344°
2026-04-24 10:36 45.44230 47.15607 21409 ft 449 kts 344°
2026-04-24 10:36 45.47321 47.14993 21460 ft 449 kts 344°
2026-04-24 10:36 45.50414 47.14379 21483 ft 449 kts 344°
2026-04-24 10:37 45.53511 47.13762 21521 ft 449 kts 344°
2026-04-24 10:37 45.56606 47.13145 21560 ft 450 kts 344°
2026-04-24 10:37 45.59706 47.12525 21602 ft 450 kts 344°
2026-04-24 10:37 45.62807 47.11906 21643 ft 450 kts 344°
2026-04-24 10:38 45.65907 47.11287 21664 ft 450 kts 344°
2026-04-24 10:38 45.69009 47.10674 21682 ft 451 kts 344°
2026-04-24 10:38 45.72117 47.10066 21720 ft 451 kts 344°
2026-04-24 10:38 45.75223 47.09459 21749 ft 451 kts 344°
2026-04-24 10:39 45.78332 47.08849 21780 ft 451 kts 344°
2026-04-24 10:39 45.81445 47.08234 21818 ft 451 kts 344°
2026-04-24 10:39 45.84558 47.07618 21845 ft 451 kts 344°
2026-04-24 10:39 45.87667 47.07004 21872 ft 452 kts 344°
2026-04-24 10:40 45.90772 47.06337 21883 ft 448 kts 340°
2026-04-24 10:40 45.93736 47.05132 21894 ft 438 kts 330°
2026-04-24 10:40 45.96457 47.03307 21922 ft 428 kts 322°
2026-04-24 10:40 45.99066 47.01255 21949 ft 427 kts 322°
2026-04-24 10:41 46.01671 46.99185 21964 ft 428 kts 322°
2026-04-24 10:41 46.04280 46.97126 22019 ft 428 kts 322°
2026-04-24 10:41 46.06891 46.95085 22072 ft 428 kts 322°
2026-04-24 10:41 46.09511 46.93049 22083 ft 428 kts 322°
2026-04-24 10:42 46.12129 46.91019 22118 ft 427 kts 322°
2026-04-24 10:42 46.14746 46.88991 22164 ft 427 kts 322°
2026-04-24 10:42 46.17362 46.86962 22177 ft 427 kts 322°
2026-04-24 10:42 46.19979 46.84933 22187 ft 428 kts 323°
2026-04-24 10:43 46.22649 46.82992 22202 ft 431 kts 325°
2026-04-24 10:43 46.25366 46.81151 22267 ft 431 kts 326°
2026-04-24 10:43 46.28088 46.79352 22296 ft 431 kts 326°
2026-04-24 10:43 46.30817 46.77552 22301 ft 431 kts 326°
2026-04-24 10:44 46.33554 46.75724 22612 ft 435 kts 326°
2026-04-24 10:44 46.36297 46.73873 23171 ft 435 kts 326°
2026-04-24 10:44 46.39044 46.72008 23625 ft 438 kts 325°
2026-04-24 10:44 46.41775 46.70147 24002 ft 441 kts 325°
2026-04-24 10:45 46.44599 46.68220 24387 ft 444 kts 325°
2026-04-24 10:45 46.47363 46.66335 24821 ft 446 kts 325°
2026-04-24 10:45 46.50174 46.64418 25247 ft 447 kts 325°
2026-04-24 10:45 46.53037 46.62464 25613 ft 450 kts 325°
2026-04-24 10:46 46.55882 46.60516 25918 ft 454 kts 325°
2026-04-24 10:46 46.58751 46.58549 26266 ft 456 kts 325°
2026-04-24 10:46 46.61581 46.56611 26737 ft 455 kts 325°
2026-04-24 10:46 46.64429 46.54662 27271 ft 453 kts 325°
2026-04-24 10:47 46.67271 46.52713 27711 ft 452 kts 325°
2026-04-24 10:47 46.70115 46.50759 28153 ft 452 kts 324°
2026-04-24 10:47 46.72947 46.48809 28647 ft 450 kts 324°
2026-04-24 10:47 46.75770 46.46862 29103 ft 448 kts 324°
2026-04-24 10:48 46.78590 46.44913 29460 ft 449 kts 324°
2026-04-24 10:48 46.81410 46.42960 29821 ft 450 kts 324°
2026-04-24 10:48 46.84207 46.41023 30198 ft 450 kts 324°
2026-04-24 10:48 46.87012 46.39080 30577 ft 449 kts 324°
2026-04-24 10:49 46.89813 46.37136 30923 ft 449 kts 324°
2026-04-24 10:49 46.92632 46.35176 31213 ft 451 kts 324°
2026-04-24 10:49 46.95466 46.33205 31554 ft 451 kts 325°
2026-04-24 10:49 46.98305 46.31231 31895 ft 451 kts 325°
2026-04-24 10:50 47.01135 46.29259 32145 ft 453 kts 325°
2026-04-24 10:50 47.03980 46.27273 32453 ft 454 kts 325°
2026-04-24 10:50 47.06833 46.25282 32782 ft 453 kts 326°
2026-04-24 10:50 47.09679 46.23293 33082 ft 454 kts 326°
2026-04-24 10:51 47.12532 46.21297 33353 ft 455 kts 326°
2026-04-24 10:51 47.15388 46.19295 33627 ft 455 kts 326°
2026-04-24 10:51 47.18250 46.17288 33897 ft 456 kts 326°
2026-04-24 10:51 47.21114 46.15275 34134 ft 457 kts 327°
2026-04-24 10:52 47.23985 46.13257 34433 ft 457 kts 327°
2026-04-24 10:52 47.26845 46.11246 34745 ft 456 kts 327°
2026-04-24 10:52 47.29716 46.09221 34920 ft 458 kts 327°
2026-04-24 10:52 47.32598 46.07184 35100 ft 460 kts 327°
2026-04-24 10:53 47.35452 46.05169 35383 ft 459 kts 327°
2026-04-24 10:53 47.38301 46.03157 35688 ft 458 kts 327°
2026-04-24 10:53 47.41173 46.01126 35917 ft 458 kts 327°
2026-04-24 10:53 47.44045 45.99096 36144 ft 458 kts 327°
2026-04-24 10:54 47.46923 45.97058 36358 ft 458 kts 327°
2026-04-24 10:54 47.49794 45.95023 36589 ft 458 kts 327°
2026-04-24 10:54 47.52660 45.92988 36880 ft 455 kts 327°
2026-04-24 10:54 47.55501 45.90973 37283 ft 450 kts 327°
2026-04-24 10:55 47.58319 45.88970 37503 ft 450 kts 327°
2026-04-24 10:55 47.63989 45.84918 37683 ft 454 kts 327°
2026-04-24 10:56 47.69710 45.80822 37711 ft 458 kts 327°
2026-04-24 10:56 47.75438 45.76715 37722 ft 463 kts 327°
2026-04-24 10:57 47.81258 45.72533 37727 ft 470 kts 327°
2026-04-24 10:57 47.87169 45.68277 37713 ft 477 kts 327°
2026-04-24 10:58 47.93178 45.63939 37705 ft 483 kts 327°
2026-04-24 10:58 47.99257 45.59540 37692 ft 487 kts 327°
2026-04-24 10:59 48.05370 45.55109 37683 ft 490 kts 328°
2026-04-24 10:59 48.11505 45.50644 37676 ft 491 kts 327°
2026-04-24 11:00 48.17651 45.46160 37658 ft 491 kts 328°
2026-04-24 11:00 48.23795 45.41662 37664 ft 492 kts 328°
2026-04-24 11:01 48.29940 45.37156 37649 ft 491 kts 327°
2026-04-24 11:01 48.36074 45.32646 37644 ft 490 kts 328°
2026-04-24 11:02 48.42009 45.27735 37629 ft 480 kts 317°
2026-04-24 11:02 48.47253 45.21589 37638 ft 476 kts 315°
2026-04-24 11:03 48.52438 45.15365 37628 ft 476 kts 315°
2026-04-24 11:03 48.57612 45.09241 37626 ft 476 kts 315°
2026-04-24 11:04 48.62869 45.03054 37625 ft 476 kts 315°
2026-04-24 11:04 48.68057 44.96947 37617 ft 475 kts 315°
2026-04-24 11:05 48.73298 44.90752 37619 ft 475 kts 316°
2026-04-24 11:05 48.78464 44.84627 37619 ft 475 kts 315°
2026-04-24 11:06 48.83659 44.78453 37601 ft 475 kts 315°
2026-04-24 11:06 48.88790 44.72148 37617 ft 474 kts 314°
2026-04-24 11:07 48.96405 44.62553 37618 ft 474 kts 314°
2026-04-24 11:07 49.01497 44.56145 37599 ft 475 kts 314°
2026-04-24 11:08 49.06589 44.49734 37619 ft 475 kts 314°
2026-04-24 11:08 49.11679 44.43310 37607 ft 475 kts 314°
2026-04-24 11:09 49.16779 44.36855 37610 ft 476 kts 314°
2026-04-24 11:09 49.21871 44.30394 37614 ft 476 kts 314°
2026-04-24 11:10 49.26972 44.23901 37614 ft 477 kts 314°
2026-04-24 11:10 49.32069 44.17398 37614 ft 477 kts 314°
2026-04-24 11:11 49.37168 44.10872 37603 ft 478 kts 314°
2026-04-24 11:11 49.42270 44.04324 37596 ft 478 kts 314°
2026-04-24 11:12 49.47380 43.97747 37597 ft 479 kts 314°
2026-04-24 11:12 49.52495 43.91151 37590 ft 480 kts 314°
2026-04-24 11:13 49.57614 43.84554 37597 ft 480 kts 314°
2026-04-24 11:13 49.62736 43.77947 37605 ft 480 kts 314°
2026-04-24 11:14 49.67851 43.71321 37597 ft 480 kts 314°
2026-04-24 11:14 49.72969 43.64671 37587 ft 481 kts 314°
2026-04-24 11:15 49.78079 43.58013 37595 ft 480 kts 314°
2026-04-24 11:15 49.83182 43.51347 37596 ft 480 kts 314°
2026-04-24 11:16 49.87452 43.45752 37589 ft 479 kts 314°
2026-04-24 11:16 49.92539 43.39071 37579 ft 479 kts 314°
2026-04-24 11:17 49.97618 43.32381 37585 ft 479 kts 314°
2026-04-24 11:17 50.02661 43.25720 37579 ft 479 kts 315°
2026-04-24 11:18 50.07732 43.19002 37583 ft 479 kts 315°
2026-04-24 11:18 50.12807 43.12260 37572 ft 479 kts 315°
2026-04-24 11:19 50.17868 43.05517 37575 ft 479 kts 315°
2026-04-24 11:19 50.22929 42.98753 37574 ft 479 kts 315°
2026-04-24 11:20 50.27985 42.91977 37576 ft 478 kts 315°
2026-04-24 11:20 50.33027 42.85198 37571 ft 478 kts 315°
2026-04-24 11:21 50.38072 42.78399 37572 ft 478 kts 315°
2026-04-24 11:21 50.43106 42.71593 37571 ft 478 kts 315°
2026-04-24 11:22 50.48129 42.64781 37558 ft 477 kts 315°
2026-04-24 11:22 50.53147 42.57961 37562 ft 476 kts 316°
2026-04-24 11:23 50.58530 42.51789 37567 ft 480 kts 322°
2026-04-24 11:23 50.64078 42.45973 37561 ft 480 kts 323°
2026-04-24 11:24 50.69633 42.40117 37557 ft 479 kts 322°
2026-04-24 11:24 50.75154 42.34208 37548 ft 479 kts 322°
2026-04-24 11:25 50.80654 42.28267 37550 ft 479 kts 322°
2026-04-24 11:25 50.86153 42.22305 37556 ft 479 kts 322°
2026-04-24 11:26 50.91648 42.16333 37545 ft 480 kts 322°
2026-04-24 11:26 50.94400 42.13335 37399 ft 482 kts 322°
2026-04-24 11:26 50.97089 42.10401 37142 ft 484 kts 322°
2026-04-24 11:27 50.99892 42.07341 36885 ft 481 kts 322°
2026-04-24 11:27 51.02637 42.04344 36698 ft 477 kts 322°
2026-04-24 11:27 51.07984 41.98481 36550 ft 479 kts 322°
2026-04-24 11:28 51.13438 41.92490 36543 ft 474 kts 322°
2026-04-24 11:28 51.18865 41.86509 36533 ft 474 kts 322°
2026-04-24 11:29 51.24272 41.80529 36537 ft 475 kts 322°
2026-04-24 11:29 51.29703 41.74506 36533 ft 475 kts 322°
2026-04-24 11:30 51.35134 41.68468 36536 ft 476 kts 322°
2026-04-24 11:30 51.40564 41.62412 36527 ft 476 kts 322°
2026-04-24 11:31 51.45996 41.56335 36523 ft 476 kts 322°
2026-04-24 11:31 51.51423 41.50244 36527 ft 476 kts 322°
2026-04-24 11:32 51.56842 41.44147 36525 ft 476 kts 322°
2026-04-24 11:32 51.62266 41.38027 36485 ft 477 kts 322°
2026-04-24 11:33 51.67705 41.31873 36485 ft 479 kts 322°
2026-04-24 11:33 51.73175 41.25668 36488 ft 482 kts 322°
2026-04-24 11:34 51.78666 41.19425 36484 ft 485 kts 322°
2026-04-24 11:34 51.84183 41.13133 36479 ft 486 kts 322°
2026-04-24 11:35 51.89740 41.06773 36478 ft 486 kts 322°
2026-04-24 11:35 51.95217 41.00488 36477 ft 485 kts 322°
2026-04-24 11:36 52.00721 40.94151 36478 ft 485 kts 322°
2026-04-24 11:36 52.06276 40.87962 36473 ft 485 kts 327°
2026-04-24 11:37 52.12195 40.82536 36472 ft 485 kts 330°
2026-04-24 11:37 52.18115 40.77269 36468 ft 484 kts 329°
2026-04-24 11:38 52.23976 40.71900 36469 ft 484 kts 329°
2026-04-24 11:38 52.29776 40.66516 36471 ft 484 kts 329°
2026-04-24 11:39 52.35619 40.61084 36466 ft 483 kts 329°
2026-04-24 11:39 52.41461 40.55665 36464 ft 482 kts 329°
2026-04-24 11:40 52.47225 40.50299 36459 ft 482 kts 329°
2026-04-24 11:40 52.53046 40.44866 36459 ft 482 kts 329°
2026-04-24 11:41 52.58857 40.39439 36460 ft 481 kts 329°
2026-04-24 11:41 52.64673 40.33993 36460 ft 481 kts 329°
2026-04-24 11:42 52.70490 40.28526 36450 ft 481 kts 329°
2026-04-24 11:42 52.76289 40.23057 36450 ft 481 kts 329°
2026-04-24 11:43 52.82053 40.17608 36449 ft 481 kts 329°
2026-04-24 11:43 52.87859 40.12099 36452 ft 481 kts 329°
2026-04-24 11:44 52.93665 40.06575 36449 ft 481 kts 329°
2026-04-24 11:44 52.99463 40.01045 36448 ft 481 kts 329°
2026-04-24 11:45 53.05251 39.95505 36457 ft 480 kts 329°
2026-04-24 11:45 53.11032 39.89955 36446 ft 480 kts 329°
2026-04-24 11:46 53.16801 39.84397 36448 ft 478 kts 329°
2026-04-24 11:46 53.22505 39.78887 36451 ft 478 kts 329°
2026-04-24 11:47 53.28271 39.73297 36451 ft 478 kts 329°
2026-04-24 11:47 53.34013 39.67714 36459 ft 477 kts 329°
2026-04-24 11:48 53.39753 39.62113 36458 ft 477 kts 329°
2026-04-24 11:48 53.45543 39.56822 36458 ft 477 kts 333°
2026-04-24 11:49 53.51495 39.51878 36467 ft 477 kts 333°
2026-04-24 11:49 53.57442 39.46913 36468 ft 477 kts 333°
2026-04-24 11:50 53.63263 39.41971 36411 ft 458 kts 333°
2026-04-24 11:50 53.66080 39.39561 36029 ft 452 kts 333°
2026-04-24 11:50 53.68899 39.37145 35235 ft 457 kts 332°
2026-04-24 11:51 53.71788 39.34666 34333 ft 463 kts 332°
2026-04-24 11:51 53.74637 39.32218 33533 ft 467 kts 332°
2026-04-24 11:51 53.77534 39.29727 32959 ft 465 kts 332°
2026-04-24 11:51 53.80390 39.27267 32572 ft 458 kts 333°
2026-04-24 11:52 53.83211 39.24835 32167 ft 452 kts 333°
2026-04-24 11:52 53.85981 39.22444 31699 ft 448 kts 333°
2026-04-24 11:52 53.88745 39.20052 31196 ft 445 kts 333°
2026-04-24 11:52 53.91479 39.17681 30718 ft 441 kts 333°
2026-04-24 11:53 53.94201 39.15316 30258 ft 437 kts 333°
2026-04-24 11:53 53.96893 39.12972 29816 ft 432 kts 333°
2026-04-24 11:53 53.99534 39.10669 29194 ft 424 kts 333°
2026-04-24 11:53 54.02148 39.08386 28383 ft 421 kts 333°
2026-04-24 11:54 54.04767 39.06095 27630 ft 424 kts 333°
2026-04-24 11:54 54.07377 39.03812 27141 ft 422 kts 333°
2026-04-24 11:54 54.09975 39.01536 26670 ft 419 kts 333°
2026-04-24 11:54 54.12558 38.99269 26202 ft 416 kts 332°
2026-04-24 11:55 54.15125 38.97011 25732 ft 413 kts 332°
2026-04-24 11:55 54.17672 38.94767 25282 ft 411 kts 332°
2026-04-24 11:55 54.20208 38.92533 24830 ft 409 kts 332°
2026-04-24 11:55 54.22716 38.90320 24554 ft 402 kts 332°
2026-04-24 11:56 54.25171 38.88179 24453 ft 391 kts 333°
2026-04-24 11:56 54.27589 38.86123 24378 ft 390 kts 333°
2026-04-24 11:56 54.30071 38.84027 24340 ft 407 kts 333°
2026-04-24 11:56 54.32644 38.81850 24259 ft 415 kts 333°
2026-04-24 11:57 54.35230 38.79654 24158 ft 414 kts 333°
2026-04-24 11:57 54.37802 38.77464 24062 ft 411 kts 333°
2026-04-24 11:57 54.40362 38.75278 23977 ft 409 kts 333°
2026-04-24 11:57 54.42903 38.73103 23900 ft 407 kts 333°
2026-04-24 11:58 54.45431 38.70936 23820 ft 406 kts 333°
2026-04-24 11:58 54.47951 38.68772 23744 ft 404 kts 333°
2026-04-24 11:58 54.50461 38.66613 23666 ft 403 kts 333°
2026-04-24 11:58 54.52967 38.64451 23579 ft 403 kts 333°
2026-04-24 11:59 54.54628 38.63015 23522 ft 402 kts 333°
2026-04-24 11:59 54.57937 38.60152 23425 ft 402 kts 333°
2026-04-24 11:59 54.59627 38.58687 23379 ft 402 kts 333°
2026-04-24 11:59 54.62935 38.55817 23276 ft 402 kts 333°
2026-04-24 12:00 54.65434 38.53644 23200 ft 402 kts 333°
2026-04-24 12:00 54.67119 38.52178 23147 ft 402 kts 333°
2026-04-24 12:00 54.69617 38.50002 23067 ft 402 kts 333°
2026-04-24 12:00 54.72107 38.47830 22984 ft 401 kts 333°
2026-04-24 12:01 54.74604 38.45655 22893 ft 401 kts 333°
2026-04-24 12:01 54.77097 38.43497 22815 ft 401 kts 333°
2026-04-24 12:01 54.79042 38.41813 22747 ft 400 kts 333°
2026-04-24 12:01 54.81534 38.39650 22680 ft 400 kts 333°
2026-04-24 12:02 54.83870 38.37092 22542 ft 397 kts 314°
2026-04-24 12:02 54.85503 38.33596 22269 ft 392 kts 297°
2026-04-24 12:02 54.86540 38.29048 21702 ft 388 kts 284°
2026-04-24 12:02 54.87329 38.24570 21172 ft 388 kts 283°
2026-04-24 12:03 54.88091 38.20147 20660 ft 387 kts 284°
2026-04-24 12:03 54.88862 38.15679 20138 ft 385 kts 284°
2026-04-24 12:03 54.89644 38.11173 19618 ft 384 kts 284°
2026-04-24 12:03 54.90420 38.06741 19105 ft 382 kts 285°
2026-04-24 12:04 54.91184 38.02396 18605 ft 380 kts 285°
2026-04-24 12:04 54.91953 37.98034 18101 ft 379 kts 285°
2026-04-24 12:04 54.92724 37.93663 17597 ft 377 kts 285°
2026-04-24 12:04 54.93486 37.89331 17095 ft 374 kts 286°
2026-04-24 12:05 54.94239 37.85039 16579 ft 365 kts 286°
2026-04-24 12:05 54.94958 37.80935 16099 ft 354 kts 286°
2026-04-24 12:05 54.95665 37.76889 15630 ft 344 kts 286°
2026-04-24 12:05 54.96352 37.72949 15172 ft 335 kts 287°
2026-04-24 12:06 54.97018 37.69116 14732 ft 328 kts 287°
2026-04-24 12:06 54.97674 37.65342 14304 ft 324 kts 287°
2026-04-24 12:06 54.98323 37.61595 13880 ft 324 kts 288°
2026-04-24 12:06 54.98972 37.57838 13452 ft 325 kts 288°
2026-04-24 12:07 54.99620 37.54079 13014 ft 322 kts 288°
2026-04-24 12:07 55.00255 37.50394 12583 ft 318 kts 288°
2026-04-24 12:07 55.00881 37.46749 12169 ft 315 kts 288°
2026-04-24 12:07 55.01502 37.43120 11745 ft 311 kts 288°
2026-04-24 12:08 55.02297 37.39666 11312 ft 305 kts 306°
2026-04-24 12:08 55.03786 37.37138 10925 ft 298 kts 330°
2026-04-24 12:08 55.05643 37.35785 10547 ft 289 kts 348°
2026-04-24 12:08 55.07597 37.35549 10172 ft 279 kts
2026-04-24 12:09 55.09468 37.35669 9807 ft 271 kts
2026-04-24 12:09 55.11324 37.35812 9495 ft 261 kts
2026-04-24 12:09 55.13095 37.35943 9132 ft 254 kts
2026-04-24 12:09 55.14821 37.36060 8925 ft 244 kts
2026-04-24 12:10 55.16509 37.36165 8670 ft 242 kts
2026-04-24 12:10 55.18185 37.36265 8419 ft 240 kts
2026-04-24 12:10 55.19853 37.36363 8180 ft 241 kts
2026-04-24 12:11 55.23238 37.36562 7618 ft 245 kts
2026-04-24 12:11 55.24945 37.36661 7298 ft 245 kts
2026-04-24 12:11 55.26636 37.36760 6969 ft 241 kts
2026-04-24 12:11 55.28287 37.36857 6650 ft 234 kts
2026-04-24 12:12 55.29889 37.36952 6336 ft 229 kts
2026-04-24 12:12 55.31884 37.36139 5942 ft 223 kts 332°
2026-04-24 12:12 55.32749 37.35081 5768 ft 223 kts 321°
2026-04-24 12:12 55.33829 37.33113 5513 ft 224 kts 316°
2026-04-24 12:13 55.34894 37.31125 5238 ft 223 kts 316°
2026-04-24 12:13 55.35956 37.29153 4976 ft 223 kts 316°
2026-04-24 12:13 55.37002 37.27207 4714 ft 223 kts 316°
2026-04-24 12:13 55.38066 37.25224 4445 ft 223 kts 316°
2026-04-24 12:14 55.39132 37.23236 4186 ft 224 kts 316°
2026-04-24 12:14 55.40201 37.21238 3922 ft 224 kts 316°
2026-04-24 12:14 55.41274 37.19239 3650 ft 223 kts 316°
2026-04-24 12:14 55.42323 37.17281 3378 ft 216 kts 316°
2026-04-24 12:15 55.43446 37.15735 3111 ft 199 kts 343°
2026-04-24 12:15 55.44730 37.15796 2976 ft 182 kts 13°
2026-04-24 12:15 55.45899 37.16392 2816 ft 167 kts 14°
2026-04-24 12:15 55.46961 37.16957 2695 ft 151 kts 15°
2026-04-24 12:16 55.47893 37.17559 2562 ft 136 kts 18°
2026-04-24 12:16 55.48793 37.18204 2379 ft 162 kts 19°
2026-04-24 12:16 55.49927 37.19059 2407 ft 176 kts 19°
2026-04-24 12:16 55.50995 37.19882 2264 ft 158 kts 22°
2026-04-24 12:17 55.51991 37.20646 2041 ft 153 kts 26°
2026-04-24 12:17 55.52945 37.21378 1893 ft 150 kts 29°
2026-04-24 12:17 55.53887 37.22102 1704 ft 146 kts 21°
2026-04-24 12:17 55.54805 37.22807 1508 ft 142 kts 21°
2026-04-24 12:18 55.55703 37.23498 1306 ft 140 kts 21°
2026-04-24 12:18 55.56591 37.24175 1111 ft 137 kts 21°
2026-04-24 12:18 55.57434 37.24823 944 ft 130 kts 21°
2026-04-24 12:18 55.58077 37.25323 788 ft 129 kts 22°
2026-04-24 12:19 55.58896 37.25945 663 ft 129 kts 21°
2026-04-24 12:19 55.59627 37.26507 673 ft 99 kts 23°
2026-04-24 12:19 55.60119 37.26882 681 ft 56 kts 23°
2026-04-24 12:19 55.60378 37.27080 668 ft 35 kts 23°
2026-04-24 12:20 55.60560 37.27230 658 ft 14 kts 44°
2026-04-24 12:20 55.60548 37.27391 662 ft 10 kts 113°
2026-04-24 12:20 55.60521 37.27502 664 ft 10 kts 113°
2026-04-24 12:20 55.60494 37.27613 667 ft 10 kts 113°
2026-04-24 12:21 55.60474 37.27692 671 ft 0 kts 117°
2026-04-24 12:21 55.60472 37.27699 671 ft 3 kts 116°
2026-04-24 12:21 55.60460 37.27733 673 ft 3 kts 126°
2026-04-24 12:21 55.60432 37.27783 675 ft 9 kts 135°
2026-04-24 12:22 55.60383 37.27851 678 ft 9 kts 158°
2026-04-24 12:22 55.60354 37.27859 678 ft 2 kts 181°
2026-04-24 12:22 55.60339 37.27857 679 ft 2 kts 184°
2026-04-24 12:22 55.60325 37.27855 679 ft 2 kts 186°
2026-04-24 12:23 55.60304 37.27856 679 ft 4 kts 170°
2026-04-24 12:23 55.60281 37.27880 676 ft 4 kts 130°
2026-04-24 12:23 55.60274 37.27925 679 ft 4 kts 96°
2026-04-24 12:23 55.60273 37.27968 679 ft 2 kts 92°
2026-04-24 12:24 55.60273 37.27977 679 ft 0 kts 92°
2026-04-24 12:24 55.60272 37.27978 679 ft 0 kts 92°